map of MLE home
MLE - Airport
Location
City:  Malé, Hulhulé Island, Malé (Maale), Maldives
Name:Malé International Airport
Old (Alt.):Ibrahim Nasir International, Hulhulé Airport
ICAO:VRMM
IATA:MLE

Details
Type:Airport (Aerodrome, Airfield)
Use:Public/Civil, International (customs port of entry)
Latitude:4°11'30"N (4.191667)
Longitude:73°31'45"E (73.529167)
Elevation:6 ft (2 m)
Variation:2.76°W (WMM2015 magnetic declination)
0.08° annual change
Runways:1
Longest:10499 × 148 ft (3200 × 45 m), paved

Time
Time Zone:UTC+5
Local Time:

Weather
METAR:VRMM 181400Z 03007KT 9999 FEW018 29/22 Q1011 NOSIG
TAF:VRMM 181100Z 1812/1918 01008KT 9999 FEW018= TAF VRMG 181100Z 1812/1918 01009KT 9999 FEW018
TEMPO 1814/1820 5000 -SHRA FEW018CB

Related Locations
Nearby:
Farthest:SEII: 11355 mi / 18274 km
Puerto Villamil [General Villamil], Isabela Island, W, EC

Find:

   beyond  
but within

Other Information
Maps:
NOTAMs:
Links:
Sources:

  
  • flag of Maldives
  

Airport Diagram

Airport diagram for MLE

Airport diagram PDF from AIP Maldives

Sectional Chart

Flight Planning
at skyvector.com

Satellite Image

Google Maps Satellite view

 

Copyright © 2004-2018 Karl L. Swartz. All rights reserved.
The Great Circle Mapper name and logo are trademarks of the Great Circle Mapper.
All other trademarks mentioned herein belong to their respective owners.
Please see credits for attibutions and further copyright information.

  Follow gcmap on Facebook Follow gcmap on Twitter Follow gcmap on Google+ GCmap on LinkedIn

hCard Microformat

Geo Microformat